[[{"header":{"parameterUnit":"m.s-1","parameterCategory":1,"la1":30.2991,"la2":30.254,"lo1":-89.0895,"lo2":-89.0444,"dy":0.0017,"dx":0.0017,"nx":28,"ny":28,"refTime":"2025-02-12T09:00:00:Z","depth":0,"parameterNumber":2,"parameterNumberName":"U-component_of_WINDS"},"data":[0,0,0,0,0,0,0,0,0,0,0,0,0,0,0,0,0,0,0,0,0,0,0,0,0,0,0,0,0,0,0,0,0,0,0,0,0,0,0,0,0,0,0,0,0,0,0,0,0,0,0,0,0,0,0,0,0,0,-0.0377,-0.0377,0,-0.0332,-0.0331,-0.0331,-0.0298,-0.0298,-0.0298,-0.0297,-0.025,-0.025,-0.0249,0,0,0,0,0,0,0,0,0,0,0,0,0,-0.0435,-0.0434,-0.0377,-0.0377,-0.0376,-0.0332,-0.0331,-0.0331,-0.0298,-0.0298,-0.0298,-0.0297,-0.0251,-0.025,-0.0248,0,0,0,0,0,0,0,0,0,0,0,0,0,-0.0402,-0.0434,-0.0378,-0.0355,-0.0352,-0.0332,-0.0331,-0.033,-0.0298,-0.0298,-0.0297,-0.0297,-0.0251,-0.025,-0.0248,-0.0247,0,0,-0.0244,-0.0243,0,0,0,0,0,0,0,0,-0.0404,-0.04,-0.0359,-0.0356,-0.0353,-0.032,-0.0334,-0.0302,-0.0298,-0.0319,-0.0297,-0.0297,-0.0274,-0.0271,-0.0263,-0.0245,-0.0243,-0.0244,-0.0243,-0.0242,-0.0242,0,0,0,0,0,0,0,-0.0406,-0.0402,-0.0359,-0.0358,-0.0355,-0.0346,-0.0341,-0.0328,-0.0299,-0.0317,-0.0314,-0.031,-0.0272,-0.0264,-0.0262,-0.0242,-0.0244,-0.0242,-0.0241,-0.0241,-0.0218,-0.0219,0,0,0,0,0,0,-0.0412,-0.0404,-0.0361,-0.0358,-0.0378,-0.0346,-0.034,-0.0331,-0.0299,-0.0294,-0.031,-0.0308,-0.0267,-0.0263,-0.026,-0.0255,-0.0242,-0.0241,-0.024,-0.0218,-0.0219,-0.0219,0,0,0,0,0,0,-0.0414,-0.0409,-0.0363,-0.038,-0.0374,-0.0345,-0.0336,-0.0331,-0.0323,-0.0294,-0.0288,-0.0307,-0.0267,-0.0262,-0.025,-0.0253,-0.024,-0.0239,-0.0218,-0.0218,-0.0219,-0.0247,0,0,0,0,0,0,-0.0415,-0.0409,-0.0409,-0.038,-0.0373,-0.0354,-0.0336,-0.033,-0.032,-0.0317,-0.029,-0.0285,-0.0266,-0.0252,-0.0248,-0.0251,-0.0237,-0.0217,-0.0218,-0.0219,-0.0245,-0.0248,-0.025,0,0,0,0,0,-0.0418,-0.0419,-0.0409,-0.0404,-0.0372,-0.0355,-0.035,-0.0328,-0.032,-0.032,-0.0301,-0.0286,-0.0253,-0.0251,-0.0247,-0.0249,-0.0217,-0.0218,-0.0218,-0.0244,-0.0247,-0.025,0,0,0,0,0,0,-0.045,-0.0415,-0.0404,-0.0396,-0.0378,-0.0349,-0.0347,-0.0333,-0.0317,-0.0315,-0.0289,-0.0283,-0.0273,-0.026,-0.0258,-0.0245,-0.0233,-0.0233,-0.0254,-0.0257,-0.026,-0.0263,-0.0236,0,0,0,0,0,-0.0456,-0.0445,-0.0415,-0.0411,-0.0403,-0.0377,-0.0368,-0.0353,-0.0333,-0.0326,-0.0306,-0.0288,-0.0273,-0.0264,-0.0249,-0.0243,-0.0236,-0.0242,-0.0244,-0.0246,-0.0247,-0.0241,-0.0243,-0.0221,-0.0221,-0.0221,0,0,-0.0468,-0.0448,-0.0443,-0.0417,-0.0401,-0.039,-0.0371,-0.036,-0.0351,-0.0324,-0.0312,-0.0296,-0.0274,-0.0264,-0.0259,-0.0252,-0.0251,-0.0247,-0.0249,-0.0248,-0.0241,-0.0244,-0.0245,-0.0222,-0.0222,-0.0221,0,0,-0.0485,-0.0469,-0.0464,-0.0448,-0.0425,-0.0407,-0.0405,-0.0378,-0.0367,-0.0353,-0.0333,-0.0321,-0.0297,-0.0282,-0.0271,-0.0279,-0.0265,-0.0275,-0.0289,-0.0283,-0.0285,-0.0286,-0.0289,-0.029,-0.0276,-0.0276,-0.0276,0,-0.0504,-0.0487,-0.0463,-0.0453,-0.0441,-0.0416,-0.0409,-0.0396,-0.0368,-0.0361,-0.0354,-0.0322,-0.0305,-0.0291,-0.0293,-0.0285,-0.0282,-0.0279,-0.0286,-0.0288,-0.0288,-0.0291,-0.0292,-0.0277,-0.0277,-0.0277,-0.0277,0,-0.051,-0.0498,-0.0496,-0.047,-0.0459,-0.0451,-0.0425,-0.0416,-0.0401,-0.0384,-0.037,-0.0348,-0.0328,-0.0323,-0.0309,-0.0306,-0.0303,-0.0292,-0.0279,-0.0292,-0.0294,-0.0295,-0.0279,-0.0279,-0.0278,-0.0278,0,0,-0.0548,-0.0507,-0.0507,-0.0494,-0.0466,-0.0456,-0.0446,-0.0425,-0.0418,-0.0399,-0.039,-0.0369,-0.0358,-0.0345,-0.0328,-0.0323,-0.0331,-0.0312,-0.0311,-0.0316,-0.0325,-0.0334,-0.0336,-0.032,-0.032,-0.032,-0.0327,0,-0.0561,-0.0542,-0.0519,-0.0508,-0.0496,-0.047,-0.0461,-0.0442,-0.0426,-0.0412,-0.0393,-0.0379,-0.0365,-0.0357,-0.0351,-0.0331,-0.0332,-0.033,-0.0311,-0.031,-0.0318,-0.0337,-0.0347,-0.0354,-0.0328,-0.0328,-0.0328,0,-0.0574,-0.0556,-0.0543,-0.0514,-0.0508,-0.0501,-0.0479,-0.0467,-0.0445,-0.0432,-0.0417,-0.0399,-0.0386,-0.0375,-0.0356,-0.0356,-0.0346,-0.0334,-0.0334,-0.0332,-0.032,-0.0335,-0.0356,-0.0357,-0.0329,-0.0329,-0.0329,0,-0.0602,-0.0575,-0.0564,-0.0553,-0.0519,-0.0514,-0.05,-0.0476,-0.0465,-0.0446,-0.0438,-0.0418,-0.0408,-0.0392,-0.0368,-0.0362,-0.0352,-0.0339,-0.0341,-0.0341,-0.034,-0.0341,-0.036,-0.0334,-0.0334,-0.0334,-0.0334,0,-0.0619,-0.0612,-0.0576,-0.0569,-0.056,-0.0533,-0.0525,-0.0508,-0.0487,-0.0476,-0.0452,-0.0442,-0.0411,-0.0397,-0.0378,-0.0365,-0.036,-0.0349,-0.0344,-0.0352,-0.0353,-0.0345,-0.0344,-0.0334,-0.0334,-0.0334,-0.0334,0,-0.065,-0.0625,-0.0611,-0.0579,-0.0571,-0.0565,-0.0538,-0.0529,-0.051,-0.0496,-0.0491,-0.0461,-0.0443,-0.0418,-0.0392,-0.0379,-0.0368,-0.0361,-0.0376,-0.0373,-0.0377,-0.0377,-0.0392,-0.0392,-0.0366,-0.0366,-0.0367,0,-0.0662,-0.0656,-0.0623,-0.0614,-0.06,-0.0586,-0.0573,-0.0546,-0.0535,-0.0507,-0.0502,-0.0482,-0.0464,-0.0436,-0.0412,-0.0391,-0.0383,-0.0389,-0.038,-0.0386,-0.0382,-0.0383,-0.0382,-0.0392,-0.0392,-0.0393,-0.0393,0,-0.0687,-0.0675,-0.0659,-0.0638,-0.0624,-0.0606,-0.0587,-0.0581,-0.0549,-0.0537,-0.0518,-0.0504,-0.0477,-0.0457,-0.0433,-0.0417,-0.0399,-0.0396,-0.0395,-0.0403,-0.0412,-0.0407,-0.0383,-0.0396,-0.0396,-0.0396,-0.0395,-0.0395,-0.0709,-0.0702,-0.0677,-0.066,-0.0642,-0.0625,-0.0615,-0.0594,-0.0578,-0.0554,-0.0538,-0.0519,-0.0495,-0.046,-0.0445,-0.0429,-0.0422,-0.0422,-0.0421,-0.0422,-0.0424,-0.0414,-0.0425,-0.0425,-0.0425,-0.0425,-0.0425,0,-0.0733,-0.0715,-0.0699,-0.0673,-0.0658,-0.0642,-0.062,-0.0609,-0.0593,-0.0572,-0.0554,-0.0531,-0.0511,-0.0485,-0.0462,-0.0455,-0.0446,-0.045,-0.045,-0.0447,-0.0432,-0.0434,-0.0457,-0.0457,-0.0457,-0.0457,-0.0457,-0.0457,-0.0743,-0.073,-0.0715,-0.0692,-0.0674,-0.0656,-0.0644,-0.0627,-0.061,-0.0585,-0.0568,-0.0551,-0.0527,-0.0502,-0.0482,-0.0475,-0.0468,-0.0474,-0.0464,-0.0451,-0.0448,-0.0445,-0.0447,-0.0473,-0.0473,-0.048,-0.048,-0.048]},{"header":{"parameterUnit":"m.s-1","parameterCategory":1,"la1":30.2991,"la2":30.254,"lo1":-89.0895,"lo2":-89.0444,"dy":0.0017,"dx":0.0017,"nx":28,"ny":28,"refTime":"2025-02-12T09:00:00:Z","depth":0,"parameterNumber":3,"parameterNumberName":"V-component_of_WINDS"},"data":[0,0,0,0,0,0,0,0,0,0,0,0,0,0,0,0,0,0,0,0,0,0,0,0,0,0,0,0,0,0,0,0,0,0,0,0,0,0,0,0,0,0,0,0,0,0,0,0,0,0,0,0,0,0,0,0,0,0,-7.9282,-7.9284,0,-7.9419,-7.9421,-7.9423,-7.9381,-7.9378,-7.9376,-7.9373,-7.9505,-7.9511,-7.9517,0,0,0,0,0,0,0,0,0,0,0,0,0,-7.8978,-7.8984,-7.9282,-7.9284,-7.9286,-7.9419,-7.9421,-7.9423,-7.9382,-7.9378,-7.9375,-7.9372,-7.9503,-7.951,-7.9518,0,0,0,0,0,0,0,0,0,0,0,0,0,-7.9112,-7.8986,-7.9282,-7.9281,-7.9283,-7.9419,-7.9421,-7.9423,-7.9382,-7.9378,-7.9374,-7.937,-7.95,-7.9509,-7.9519,-7.9661,0,0,-7.9547,-7.9551,0,0,0,0,0,0,0,0,-7.9104,-7.9123,-7.928,-7.9282,-7.9284,-7.9379,-7.9362,-7.9503,-7.9384,-7.9344,-7.9373,-7.9368,-7.9466,-7.9478,-7.9513,-7.9667,-7.9673,-7.9548,-7.9553,-7.9557,-7.956,0,0,0,0,0,0,0,-7.9095,-7.9117,-7.9336,-7.9282,-7.9284,-7.9272,-7.9286,-7.9389,-7.9427,-7.9347,-7.9345,-7.9362,-7.9466,-7.9504,-7.9515,-7.9675,-7.9547,-7.9556,-7.9561,-7.9565,-7.9954,-7.9958,0,0,0,0,0,0,-7.9086,-7.9109,-7.9332,-7.934,-7.9182,-7.9281,-7.9297,-7.9353,-7.9426,-7.9433,-7.9366,-7.936,-7.949,-7.9505,-7.952,-7.9692,-7.9557,-7.9566,-7.9571,-7.9949,-7.9955,-7.996,0,0,0,0,0,0,-7.9079,-7.9106,-7.9326,-7.9224,-7.9252,-7.9291,-7.9353,-7.9357,-7.9395,-7.944,-7.9446,-7.9398,-7.9487,-7.9507,-7.9627,-7.9696,-7.957,-7.9578,-7.9943,-7.9951,-7.9957,-8.0038,0,0,0,0,0,0,-7.9071,-7.9104,-7.916,-7.9226,-7.9257,-7.9434,-7.9358,-7.9363,-7.9412,-7.9406,-7.9471,-7.9478,-7.9485,-7.9613,-7.9636,-7.9707,-7.9586,-7.9937,-7.9947,-7.9955,-8.0029,-8.0047,-8.0062,0,0,0,0,0,-7.906,-7.9175,-7.9163,-7.919,-7.9329,-7.9438,-7.9455,-7.9464,-7.9418,-7.9474,-7.9503,-7.9476,-7.9685,-7.9626,-7.9651,-7.9726,-7.9933,-7.9944,-7.9954,-8.0022,-8.0043,-8.0062,0,0,0,0,0,0,-7.9112,-7.9183,-7.9171,-7.9311,-7.9369,-7.9431,-7.9501,-7.9486,-7.9556,-7.9547,-7.9552,-7.9567,-7.9691,-7.972,-7.9653,-7.9868,-7.9802,-7.9818,-7.9844,-7.9865,-7.9881,-7.9872,-7.9593,0,0,0,0,0,-7.9141,-7.9226,-7.9282,-7.94,-7.9431,-7.9461,-7.9509,-7.9511,-7.957,-7.9593,-7.9631,-7.9687,-7.9766,-7.9817,-7.9891,-8.0033,-8.0047,-8.0097,-8.0113,-8.0126,-8.014,-8.0218,-8.0241,-7.9995,-7.9995,-7.9995,0,0,-7.9199,-7.9248,-7.9301,-7.9412,-7.9458,-7.9544,-7.9482,-7.9575,-7.9639,-7.9607,-7.9724,-7.9753,-7.9816,-7.9948,-8.0008,-7.9976,-8.0211,-8.014,-8.015,-8.0157,-8.0232,-8.0255,-8.0276,-8.0003,-8.0001,-8.0,0,0,-7.935,-7.9396,-7.95,-7.9548,-7.9619,-7.9638,-7.9664,-7.9728,-7.9748,-7.9866,-7.9844,-7.9918,-8.0053,-8.01,-8.0141,-8.0312,-8.029,-8.0335,-8.0421,-8.0497,-8.0516,-8.0534,-8.0595,-8.0617,-8.0349,-8.0349,-8.035,0,-7.9412,-7.9545,-7.9555,-7.9652,-7.9701,-7.968,-7.9785,-7.9829,-7.9919,-7.9953,-7.9916,-8.0087,-8.0127,-8.0271,-8.0313,-8.0347,-8.0375,-8.0328,-8.0513,-8.0531,-8.0547,-8.0605,-8.0628,-8.0355,-8.0354,-8.0353,-8.0353,0,-7.9619,-7.971,-7.9786,-7.9878,-7.9935,-8.0035,-8.0059,-8.0116,-8.0114,-8.0137,-8.0257,-8.0306,-8.0391,-8.0425,-8.0421,-8.0568,-8.0546,-8.0512,-8.0446,-8.0575,-8.063,-8.0653,-8.0362,-8.036,-8.0359,-8.0357,0,0,-7.9804,-7.9903,-7.9931,-7.9973,-8.005,-8.012,-8.0219,-8.0305,-8.0354,-8.0417,-8.0499,-8.0615,-8.0585,-8.0632,-8.0633,-8.07,-8.0833,-8.0658,-8.0659,-8.0689,-8.0998,-8.1024,-8.105,-8.082,-8.0824,-8.0827,-8.0993,0,-7.9962,-8.014,-8.0153,-8.0313,-8.0398,-8.0379,-8.0465,-8.0521,-8.0546,-8.0619,-8.0645,-8.0728,-8.0681,-8.0709,-8.0775,-8.0804,-8.0896,-8.0792,-8.0895,-8.0898,-8.088,-8.1079,-8.1106,-8.126,-8.1015,-8.1018,-8.1021,0,-8.017,-8.0244,-8.0413,-8.048,-8.0516,-8.0594,-8.0675,-8.0746,-8.0808,-8.0821,-8.0876,-8.0869,-8.0968,-8.09,-8.1037,-8.0966,-8.1009,-8.1029,-8.1035,-8.1045,-8.0968,-8.1094,-8.1309,-8.1332,-8.1055,-8.1052,-8.105,0,-8.029,-8.0431,-8.0551,-8.0587,-8.0668,-8.0723,-8.0759,-8.0818,-8.0869,-8.0939,-8.0972,-8.1051,-8.1095,-8.1155,-8.1169,-8.1118,-8.1307,-8.1238,-8.1319,-8.1319,-8.1359,-8.1357,-8.1585,-8.1387,-8.1387,-8.1386,-8.1386,0,-8.0465,-8.0569,-8.0606,-8.068,-8.0796,-8.0809,-8.0923,-8.0954,-8.1007,-8.1085,-8.1073,-8.1146,-8.116,-8.1236,-8.1247,-8.1359,-8.1378,-8.139,-8.1392,-8.1392,-8.1391,-8.142,-8.141,-8.1392,-8.1391,-8.139,-8.1389,0,-8.0618,-8.0647,-8.0777,-8.0845,-8.0864,-8.0946,-8.1003,-8.1073,-8.1097,-8.1196,-8.122,-8.1256,-8.1345,-8.1366,-8.1469,-8.1477,-8.161,-8.1601,-8.159,-8.159,-8.1669,-8.1662,-8.1924,-8.196,-8.1738,-8.1741,-8.1742,0,-8.0728,-8.0808,-8.0886,-8.094,-8.0979,-8.1064,-8.1118,-8.1134,-8.119,-8.1269,-8.1329,-8.1417,-8.1488,-8.1629,-8.1664,-8.1743,-8.1736,-8.1823,-8.1748,-8.1746,-8.1738,-8.1733,-8.1742,-8.1837,-8.1839,-8.1841,-8.1843,0,-8.092,-8.0932,-8.1011,-8.1097,-8.1162,-8.1229,-8.1293,-8.1337,-8.1361,-8.1424,-8.1517,-8.1573,-8.1681,-8.1768,-8.1848,-8.1882,-8.1867,-8.1867,-8.1889,-8.189,-8.1881,-8.1888,-8.163,-8.186,-8.1858,-8.1857,-8.1856,-8.1855,-8.1056,-8.1127,-8.1194,-8.1283,-8.1334,-8.1395,-8.1464,-8.1499,-8.1577,-8.1669,-8.1673,-8.1773,-8.1834,-8.1941,-8.198,-8.2058,-8.2031,-8.2064,-8.2072,-8.208,-8.2088,-8.1869,-8.2072,-8.2071,-8.2071,-8.2071,-8.207,0,-8.1248,-8.1291,-8.1373,-8.1465,-8.1535,-8.1518,-8.1588,-8.1647,-8.1737,-8.1797,-8.1869,-8.1975,-8.206,-8.2102,-8.2185,-8.2239,-8.2234,-8.226,-8.2256,-8.2265,-8.2107,-8.2079,-8.2263,-8.2263,-8.2263,-8.2263,-8.2263,-8.2263,-8.1356,-8.1477,-8.1496,-8.1641,-8.1682,-8.1783,-8.1825,-8.1881,-8.1929,-8.2049,-8.2121,-8.2149,-8.2202,-8.2289,-8.2366,-8.2376,-8.2407,-8.2437,-8.2444,-8.2295,-8.2276,-8.2257,-8.2231,-8.2444,-8.2444,-8.2595,-8.2597,-8.2598]}]]